When you browse on this site, cookies collect data to enhance your experience and personalize the content and advertising you see.
Visit our Privacy Policy to learn more. By continuing to use the site, you agree to this use of cookies and data.
  • în România
  • Lista ţărilor
  • Pe 7 zile
  • Temperatura apei
  • Hartă satelitară
  • Meteo pe hartă
  • Widget-uri
  • user-avatar
    Intrare

    Meteo pe oră la Saintes

    Astăzi, 20 Iunie, Joi

    Timp Temperatura Precipitaţii Vânt Presiune Umiditate
    00:00 +17°C° 0 mm 3 m/s 760 mmHg 90%
    01:00 +17°C° 0 mm 3 m/s 760 mmHg 91%
    02:00 +17°C° 0 mm 3 m/s 760 mmHg 92%
    03:00 +16°C° 0 mm 3 m/s 760 mmHg 93%
    04:00 +17°C° 0 mm 3 m/s 760 mmHg 92%
    05:00 +17°C° 0 mm 3 m/s 760 mmHg 90%
    06:00 +17°C° 0 mm 2 m/s 761 mmHg 90%
    07:00 +18°C° 0.1 mm 2 m/s 761 mmHg 85%
    08:00 +19°C° 0.1 mm 3 m/s 761 mmHg 80%
    09:00 +20°C° 0.1 mm 3 m/s 761 mmHg 75%
    10:00 +20°C° 0.2 mm 3 m/s 761 mmHg 72%
    11:00 +21°C° 0.2 mm 3 m/s 761 mmHg 69%
    12:00 +21°C° 0.2 mm 3 m/s 762 mmHg 67%
    13:00 +21°C° 0 mm 4 m/s 761 mmHg 66%
    14:00 +21°C° 0 mm 4 m/s 761 mmHg 66%
    15:00 +21°C° 0 mm 4 m/s 761 mmHg 65%
    16:00 +20°C° 0 mm 4 m/s 761 mmHg 67%
    17:00 +19°C° 0 mm 4 m/s 761 mmHg 68%
    18:00 +18°C° 0 mm 4 m/s 761 mmHg 70%
    19:00 +17°C° 0 mm 4 m/s 761 mmHg 72%
    20:00 +15°C° 0 mm 4 m/s 762 mmHg 74%
    21:00 +14°C° 0 mm 4 m/s 762 mmHg 76%
    22:00 +13°C° 0 mm 4 m/s 762 mmHg 80%
    23:00 +12°C° 0 mm 3 m/s 762 mmHg 84%

    Mâine, 21 Iunie, Vineri

    Timp Temperatura Precipitaţii Vânt Presiune Umiditate
    00:00 +12°C° 0 mm 3 m/s 762 mmHg 88%
    01:00 +12°C° 0 mm 3 m/s 762 mmHg 89%
    02:00 +12°C° 0 mm 3 m/s 762 mmHg 90%
    03:00 +11°C° 0 mm 3 m/s 762 mmHg 91%
    04:00 +12°C° 0 mm 3 m/s 762 mmHg 89%
    05:00 +13°C° 0 mm 3 m/s 762 mmHg 87%
    06:00 +13°C° 0 mm 3 m/s 762 mmHg 85%
    07:00 +16°C° 0 mm 3 m/s 762 mmHg 79%
    08:00 +18°C° 0 mm 3 m/s 763 mmHg 73%
    09:00 +19°C° 0 mm 3 m/s 763 mmHg 68%
    10:00 +20°C° 0.1 mm 3 m/s 763 mmHg 65%
    11:00 +21°C° 0.1 mm 3 m/s 763 mmHg 63%
    12:00 +21°C° 0.1 mm 3 m/s 763 mmHg 60%
    13:00 +20°C° 0.2 mm 3 m/s 763 mmHg 65%
    14:00 +20°C° 0.2 mm 3 m/s 763 mmHg 71%
    15:00 +19°C° 0.2 mm 4 m/s 763 mmHg 76%
    16:00 +18°C° 0.1 mm 3 m/s 763 mmHg 78%
    17:00 +18°C° 0.1 mm 3 m/s 763 mmHg 80%
    18:00 +18°C° 0.1 mm 3 m/s 763 mmHg 83%
    19:00 +17°C° 0 mm 3 m/s 763 mmHg 83%
    20:00 +17°C° 0 mm 2 m/s 763 mmHg 83%
    21:00 +17°C° 0 mm 2 m/s 763 mmHg 83%
    22:00 +16°C° 0 mm 2 m/s 763 mmHg 85%
    23:00 +16°C° 0 mm 2 m/s 763 mmHg 87%

    Poimâine, 22 Iunie, Sâmbătă

    Timp Temperatura Precipitaţii Vânt Presiune Umiditate
    00:00 +16°C° 0 mm 2 m/s 763 mmHg 89%
    01:00 +16°C° 0 mm 2 m/s 763 mmHg 90%
    02:00 +16°C° 0 mm 2 m/s 762 mmHg 90%
    03:00 +16°C° 0 mm 2 m/s 762 mmHg 90%
    04:00 +16°C° 0 mm 2 m/s 762 mmHg 90%
    05:00 +16°C° 0 mm 2 m/s 762 mmHg 90%
    06:00 +16°C° 0 mm 2 m/s 762 mmHg 89%
    07:00 +18°C° 0 mm 3 m/s 762 mmHg 83%
    08:00 +19°C° 0 mm 3 m/s 762 mmHg 78%
    09:00 +21°C° 0 mm 4 m/s 762 mmHg 72%
    10:00 +21°C° 0 mm 4 m/s 761 mmHg 68%
    11:00 +22°C° 0 mm 4 m/s 761 mmHg 64%
    12:00 +23°C° 0 mm 4 m/s 761 mmHg 60%
    13:00 +25°C° 0 mm 3 m/s 761 mmHg 59%
    14:00 +25°C° 0 mm 3 m/s 760 mmHg 59%
    15:00 +25°C° 0 mm 3 m/s 760 mmHg 59%
    16:00 +25°C° 0 mm 2 m/s 759 mmHg 62%
    17:00 +25°C° 0 mm 2 m/s 759 mmHg 65%
    18:00 +25°C° 0 mm 2 m/s 759 mmHg 69%
    19:00 +23°C° 0 mm 2 m/s 759 mmHg 74%
    20:00 +20°C° 0 mm 3 m/s 759 mmHg 80%
    21:00 +19°C° 0 mm 3 m/s 760 mmHg 85%
    22:00 +18°C° 0 mm 3 m/s 759 mmHg 88%
    23:00 +18°C° 0 mm 3 m/s 759 mmHg 90%

    23 Iunie, Duminică

    Timp Temperatura Precipitaţii Vânt Presiune Umiditate
    00:00 +17°C° 0 mm 3 m/s 759 mmHg 92%
    01:00 +17°C° 0 mm 3 m/s 759 mmHg 92%
    02:00 +17°C° 0 mm 2 m/s 758 mmHg 92%
    03:00 +16°C° 0 mm 2 m/s 758 mmHg 92%
    04:00 +17°C° 0 mm 3 m/s 758 mmHg 90%
    05:00 +18°C° 0 mm 3 m/s 758 mmHg 88%
    06:00 +18°C° 0 mm 3 m/s 757 mmHg 86%
    07:00 +20°C° 0 mm 3 m/s 757 mmHg 81%
    08:00 +22°C° 0 mm 4 m/s 757 mmHg 76%
    09:00 +25°C° 0 mm 4 m/s 757 mmHg 71%
    10:00 +26°C° 0 mm 4 m/s 757 mmHg 67%
    11:00 +27°C° 0 mm 4 m/s 757 mmHg 62%
    12:00 +29°C° 0 mm 4 m/s 757 mmHg 57%
    13:00 +29°C° 0 mm 4 m/s 757 mmHg 55%
    14:00 +30°C° 0 mm 4 m/s 757 mmHg 54%
    15:00 +32°C° 0 mm 4 m/s 756 mmHg 52%
    16:00 +29°C° 0 mm 3 m/s 756 mmHg 58%
    17:00 +28°C° 0 mm 3 m/s 757 mmHg 64%
    18:00 +26°C° 0 mm 2 m/s 757 mmHg 70%
    19:00 +24°C° 0 mm 2 m/s 757 mmHg 73%
    20:00 +21°C° 0 mm 3 m/s 758 mmHg 77%
    21:00 +20°C° 0 mm 3 m/s 758 mmHg 81%
    22:00 +19°C° 0.4 mm 3 m/s 758 mmHg 85%
    23:00 +19°C° 0.4 mm 3 m/s 758 mmHg 89%

    24 Iunie, Luni

    Timp Temperatura Precipitaţii Vânt Presiune Umiditate
    00:00 +18°C° 0.4 mm 3 m/s 759 mmHg 93%
    01:00 +18°C° 0.2 mm 3 m/s 759 mmHg 93%
    02:00 +18°C° 0.2 mm 3 m/s 759 mmHg 93%
    03:00 +17°C° 0.2 mm 2 m/s 759 mmHg 93%
    04:00 +18°C° 0 mm 2 m/s 759 mmHg 91%
    05:00 +19°C° 0 mm 2 m/s 759 mmHg 88%
    06:00 +20°C° 0 mm 2 m/s 759 mmHg 85%
    07:00 +21°C° 0 mm 2 m/s 759 mmHg 81%
    08:00 +24°C° 0 mm 2 m/s 759 mmHg 76%
    09:00 +25°C° 0 mm 3 m/s 760 mmHg 72%
    10:00 +27°C° 0 mm 2 m/s 760 mmHg 68%
    11:00 +28°C° 0 mm 2 m/s 760 mmHg 65%
    12:00 +29°C° 0 mm 2 m/s 760 mmHg 62%
    13:00 +29°C° 0 mm 2 m/s 759 mmHg 61%
    14:00 +30°C° 0 mm 2 m/s 759 mmHg 60%
    15:00 +30°C° 0 mm 2 m/s 759 mmHg 59%
    16:00 +30°C° 0 mm 2 m/s 758 mmHg 62%
    17:00 +30°C° 0 mm 2 m/s 758 mmHg 66%
    18:00 +29°C° 0 mm 3 m/s 758 mmHg 69%
    19:00 +28°C° 0 mm 3 m/s 758 mmHg 73%
    20:00 +26°C° 0 mm 3 m/s 758 mmHg 77%
    21:00 +25°C° 0 mm 3 m/s 758 mmHg 80%
    22:00 +24°C° 0 mm 3 m/s 758 mmHg 81%
    23:00 +24°C° 0 mm 3 m/s 757 mmHg 81%

    25 Iunie, Marţi

    Timp Temperatura Precipitaţii Vânt Presiune Umiditate
    00:00 +22°C° 0 mm 3 m/s 757 mmHg 81%
    01:00 +22°C° 0 mm 3 m/s 757 mmHg 78%
    02:00 +21°C° 0 mm 3 m/s 757 mmHg 75%
    03:00 +20°C° 0 mm 3 m/s 757 mmHg 72%
    04:00 +20°C° 0 mm 3 m/s 757 mmHg 72%
    05:00 +20°C° 0 mm 3 m/s 758 mmHg 72%
    06:00 +20°C° 0 mm 3 m/s 758 mmHg 72%
    07:00 +22°C° 0 mm 3 m/s 759 mmHg 71%
    08:00 +24°C° 0 mm 3 m/s 759 mmHg 70%
    09:00 +26°C° 0 mm 4 m/s 759 mmHg 69%
    10:00 +27°C° 0 mm 4 m/s 760 mmHg 67%
    11:00 +28°C° 0 mm 4 m/s 760 mmHg 65%
    12:00 +29°C° 0 mm 5 m/s 761 mmHg 63%
    13:00 +28°C° 0 mm 5 m/s 761 mmHg 67%
    14:00 +27°C° 0 mm 4 m/s 761 mmHg 71%
    15:00 +26°C° 0 mm 4 m/s 761 mmHg 75%
    16:00 +25°C° 0 mm 4 m/s 761 mmHg 78%
    17:00 +25°C° 0 mm 4 m/s 761 mmHg 81%
    18:00 +23°C° 0 mm 4 m/s 762 mmHg 85%
    19:00 +22°C° 0 mm 3 m/s 762 mmHg 86%
    20:00 +21°C° 0 mm 3 m/s 762 mmHg 88%
    21:00 +20°C° 0 mm 2 m/s 762 mmHg 90%
    22:00 +20°C° 0 mm 3 m/s 762 mmHg 91%
    23:00 +20°C° 0 mm 3 m/s 762 mmHg 92%
    Arată mai mult